SCP
0 0 0 0 0 0 0 0 0 0 0 0 0 0 0 0 0 0 0 0 0 0 0 0 0 0 0 0 0 0 0 0 0 0 0 0 0 0
0 0 0 0 0 0 0 0 0 0 0 0 0 0 0 0 0 0 0 0 0 0 0 0 0 0 0 0 0 0 0 0 0 0 0 0 0 0
0 0 0 0 0 0 0 0 0 0 0 0 0 0 0 0 0 0 0 0 0 0 0 0 0 0 0 0 0 0 0 0 0 0 0 0 0 0
1 1 1 1 1 0 0 0 0 0 0 0 0 0 0 0 0 0 0 0 0 0 0 0 0 0 0 0 0 0 0 0 0 0 0 0 0 0
1 1 1 1 1 1 1 0 0 0 0 0 0 0 0 0 0 0 0 0 0 0 0 0 0 0 0 0 0 0 0 0 0 0 0 0 0 0
1 1 1 1 1 1 1 0 0 0 0 0 0 0 0 0 0 0 0 0 0 0 0 0 0 0 0 0 0 0 0 0 0 0 0 0 0 0
1 1 1 0 0 0 0 0 0 0 0 0 0 0 0 0 0 0 0 0 0 0 0 0 0 0 0 0 0 0 0 0 0 0 0 0 0 0
1 1 1 1 0 0 0 0 0 0 0 0 0 0 0 0 0 0 0 0 0 0 0 0 0 0 0 0 0 0 0 0 0 0 0 0 0 0
1 1 1 1 1 0 0 0 0 0 0 0 0 0 0 0 0 0 0 0 0 0 0 0 0 0 0 0 0 0 0 0 0 0 0 0 0 0
1 1 1 1 1 1 0 0 0 0 0 0 0 0 0 0 0 0 0 0 0 0 0 0 0 0 0 0 0 0 0 0 0 0 0 0 0 0
1 1 1 1 0 0 0 1 0 0 0 0 0 0 0 0 0 0 0 0 0 0 0 0 0 0 0 0 0 0 0 0 0 0 0 0 0 0
0 0 0 0 0 0 0 0 0 0 0 0 0 0 0 0 0 0 0 0 0 0 1 1 0 0 0 0 0 0 0 0 0 0 0 0 0 0
0 0 0 0 0 0 0 0 0 0 0 0 0 0 0 0 0 0 0 1 1 1 1 1 1 1 0 0 0 0 0 0 0 0 0 0 0 0
0 0 0 0 0 0 0 0 0 0 0 0 0 0 0 0 0 1 1 1 1 1 1 1 1 1 0 0 0 0 0 0 0 0 0 0 0 0
0 0 0 0 0 0 0 0 0 0 0 0 0 0 0 0 1 1 1 1 1 1 1 1 1 1 1 0 0 0 0 0 0 0 0 0 0 0
0 0 0 0 0 0 0 0 0 0 0 0 0 0 0 1 1 1 1 1 1 0 1 1 1 1 1 0 0 0 0 0 0 0 0 0 0 0
0 0 0 0 0 0 0 0 0 0 0 0 0 1 1 1 1 1 1 0 0 0 0 0 1 1 1 1 0 0 0 0 0 0 0 0 0 0
0 0 0 0 0 0 0 0 0 0 0 0 0 0 1 1 1 1 0 0 0 0 0 0 0 0 1 0 0 0 0 0 0 0 0 0 0 0
0 0 0 0 0 0 0 0 0 0 0 0 0 0 0 1 1 0 0 0 0 0 0 0 0 0 0 0 0 0 0 0 0 0 0 0 0 0
0 0 0 0 0 0 0 0 0 0 0 0 0 0 0 0 0 0 0 0 0 0 0 0 0 0 0 0 0 0 0 0 0 0 0 0 0 0
0 0 0 0 0 0 0 0 0 0 0 0 0 0 0 0 0 0 0 0 0 0 0 0 0 0 0 0 0 0 0 0 0 0 0 0 0 0
0 0 0 0 0 0 0 0 0 0 0 0 0 0 0 0 0 0 0 0 0 0 0 0 0 0 0 0 0 0 0 0 0 0 0 0 0 0
0 0 0 0 0 0 0 0 0 0 0 0 0 0 0 0 0 0 0 0 0 0 0 0 0 0 0 0 0 0 0 0 0 0 0 0 0 0
Wind_Speed
3 3 2 2 2 2 2 3 3 3 2 2 2 2 1 1 2 1 1 4 4 3 3 3 3 4 4 3 3 3 2 2 1 1 1 1 1 1
2 2 3 2 2 3 3 3 3 3 2 2 2 2 1 1 2 1 1 4 4 4 4 4 4 4 3 3 2 2 2 2 2 2 1 1 1 1
3 3 3 3 3 3 3 3 3 3 3 2 2 2 3 2 1 2 3 3 3 6 5 5 4 4 3 3 2 2 2 2 2 2 2 1 1 1
4 4 4 3 4 3 3 4 3 3 4 3 2 2 3 3 3 3 2 2 2 7 7 6 5 4 4 3 3 2 2 2 2 2 2 1 1 1
4 4 4 4 4 3 4 4 4 4 3 4 4 2 3 3 3 3 3 2 2 5 8 8 7 6 5 4 4 3 2 2 2 2 2 1 1 1
4 4 4 5 5 4 4 4 4 4 4 4 4 3 3 3 4 3 3 3 3 3 3 5 7 8 7 6 5 4 4 3 2 2 2 1 1 1
4 4 4 3 2 3 4 4 4 4 4 4 4 4 3 4 4 4 3 3 3 3 3 4 5 5 6 8 7 6 5 4 3 2 2 2 1 1
4 5 5 5 4 4 4 4 4 5 5 4 4 4 4 5 4 4 3 3 3 3 4 4 4 4 4 4 7 8 6 5 4 3 3 3 2 2
5 4 5 3 5 5 5 5 6 6 6 6 6 6 5 5 5 6 5 5 4 3 4 4 4 4 4 4 10 10 8 7 6 5 4 4 4 3
5 5 5 4 4 4 5 5 6 6 6 7 6 6 5 4 6 6 6 6 5 4 5 5 4 4 4 4 11 12 10 8 7 7 6 5 5 5
5 5 5 5 3 4 6 5 5 5 4 4 3 3 3 4 5 5 5 6 5 5 5 6 4 4 4 5 8 13 12 10 9 8 8 7 6 7
4 5 4 4 3 5 6 6 6 6 5 5 5 6 7 7 8 7 6 6 6 5 5 5 4 4 4 4 4 6 8 10 11 10 9 8 7 6
4 4 3 4 5 6 7 6 6 6 6 7 6 6 7 6 7 8 7 7 7 6 3 5 5 4 4 3 4 5 5 5 7 8 10 10 9 7
5 4 2 3 5 7 7 5 6 7 6 6 6 6 6 6 6 7 8 7 6 7 4 5 4 4 4 4 3 3 4 5 5 5 5 9 10 10
4 2 2 5 6 7 8 7 7 7 6 6 6 6 6 5 5 6 7 7 8 7 5 6 6 5 5 5 4 4 4 5 6 6 5 5 6 6
5 4 6 8 8 6 5 6 6 5 5 6 6 5 5 5 6 6 6 6 6 6 6 7 7 7 6 6 5 5 5 4 5 5 5 5 6 6
5 5 5 4 5 5 5 5 5 5 6 5 5 5 5 5 5 5 5 6 6 6 5 5 7 7 7 6 5 5 5 5 5 5 5 6 6 6
6 6 5 5 5 5 5 5 5 5 5 5 5 5 5 5 5 5 6 6 6 6 6 5 5 5 5 5 6 6 6 6 5 5 6 7 7 6
6 6 5 5 5 5 5 6 5 5 5 5 6 6 5 5 5 6 6 6 6 6 6 5 5 6 7 7 6 7 7 6 6 6 7 7 7 6
6 6 6 6 6 6 5 5 5 5 5 5 5 5 5 6 6 6 6 6 6 6 6 5 6 6 7 7 5 5 9 8 6 6 6 6 5 4
6 6 6 6 5 5 5 5 5 5 5 5 6 6 6 6 6 6 6 6 7 7 7 6 5 6 5 5 6 5 6 9 7 6 6 6 6 6
5 6 6 6 6 5 5 5 5 5 5 6 5 5 5 6 6 7 6 6 6 7 7 5 4 5 6 7 8 6 6 6 8 9 8 7 6 6
6 6 6 6 6 5 5 6 6 5 5 5 5 5 5 5 6 6 6 6 6 7 6 6 5 6 6 7 8 7 7 6 5 6 7 8 9 8
Wind_Direction
204 207 226 218 225 227 224 232 236 230 212 192 204 171 178 134 124 186 145 118 139 138 137 132 123 116 111 106 97 89 83 80 98 90 63 39 43 109
209 222 238 233 228 229 230 237 248 252 245 196 199 181 173 184 137 206 162 141 149 154 151 144 137 127 123 117 109 103 97 90 88 97 112 101 85 98
216 218 229 239 238 234 229 229 232 238 230 209 193 161 185 215 186 218 194 198 151 154 158 152 148 145 141 139 132 119 105 97 92 95 96 105 94 84
224 229 231 227 227 244 234 231 232 229 229 222 215 195 207 202 201 229 216 199 165 146 160 163 162 161 161 158 152 143 131 123 108 100 100 102 104 91
235 233 234 235 234 231 236 231 228 218 216 217 220 205 216 205 207 217 215 225 214 165 170 171 173 175 174 171 168 164 156 150 141 127 120 114 102 96
242 239 238 236 232 230 230 232 232 223 215 223 213 207 209 199 217 216 209 211 226 200 183 180 176 184 185 181 176 169 167 161 152 141 134 141 142 120
242 242 236 236 259 251 251 233 227 226 221 221 216 211 207 202 216 222 223 220 216 213 215 204 193 199 189 186 183 179 176 172 168 170 173 174 179 182
242 242 229 211 208 220 249 258 254 238 234 233 229 225 221 219 222 231 226 227 231 209 232 225 213 216 203 191 167 175 183 185 187 189 194 198 205 213
246 244 247 219 206 219 212 218 234 244 242 245 244 243 230 223 226 226 229 239 248 217 226 230 220 226 215 173 160 175 186 192 198 201 204 209 214 220
247 244 245 240 229 223 223 221 227 228 228 233 241 244 244 232 229 236 234 234 236 224 223 242 224 228 222 192 172 182 191 198 202 206 207 212 217 220
246 245 243 236 205 215 229 227 233 238 225 224 238 239 243 234 237 234 227 230 235 218 217 243 232 230 223 212 185 186 193 200 205 208 210 212 219 222
238 236 228 238 219 213 230 229 232 239 235 215 216 221 224 220 217 229 233 238 247 236 203 228 231 230 233 217 208 193 200 201 205 210 209 209 216 231
248 243 216 192 216 223 237 242 238 241 236 231 226 221 218 218 217 220 233 243 246 246 211 213 232 230 246 241 218 212 212 210 206 210 207 205 209 227
260 261 232 181 219 229 232 239 241 240 237 233 233 230 225 222 221 221 221 234 250 260 251 224 238 237 242 247 246 221 220 224 221 221 216 197 206 218
266 286 244 210 222 228 222 225 225 233 238 237 237 235 233 229 227 219 218 224 234 241 232 227 235 236 242 248 246 237 231 225 224 224 220 213 214 212
257 240 219 219 229 239 220 218 231 239 241 242 243 241 234 224 222 219 222 220 226 228 222 225 231 235 238 243 246 241 237 233 224 228 230 227 221 221
260 251 244 234 232 231 230 227 228 226 229 238 242 242 237 230 228 225 225 223 230 231 222 217 220 227 239 243 242 242 242 240 230 218 226 233 225 223
244 247 248 246 247 246 240 233 229 231 232 230 233 236 236 236 233 226 227 230 233 235 230 222 214 214 225 231 233 243 242 242 237 220 231 234 233 225
231 248 251 252 252 251 249 247 242 237 235 234 233 236 240 239 235 233 231 232 236 239 235 225 221 224 234 238 221 220 242 241 236 226 226 232 238 235
240 248 251 252 253 252 252 252 249 243 239 240 238 238 238 241 241 238 235 235 241 243 240 230 228 231 242 253 252 222 218 234 236 236 234 235 239 235
245 250 253 253 253 255 254 252 248 243 244 246 245 243 241 241 242 241 238 233 238 240 239 236 234 235 247 254 251 236 215 214 232 242 241 239 237 236
250 251 254 254 252 251 249 251 249 242 240 243 247 249 248 246 245 243 241 239 239 240 239 236 223 226 233 238 245 244 237 218 214 228 239 247 250 247
252 251 251 250 246 243 246 248 252 251 246 249 247 243 243 247 251 250 248 246 245 243 243 236 226 227 233 237 243 245 241 235 230 221 226 226 230 238